Terug naar catalogus

H-2A R/B

ActiefHEO
NORAD 40268·ROCKET BODY·🇯🇵 Japan

Gelanceerd Oct 7, 2014 vanaf Tanegashima Space Center

Loading…

Volgende Passages (komende 24 uur)

TLE

VersSource: Space-Track

Epoch: Sep 14, 2026, 00:15 UTC

1 40268U 14060B   26257.01068124  .00007688  00000-0  59524-3 0  9992
2 40268  22.4044 231.7793 6562872 212.9637  79.7131  3.26532290116778

Volg H-2A R/B in realtime met AllMySat

Download on the App Store